Skip Page Navigation
NASA JPL Caltech
NASA Logo - Jet Propulsion Laboratory + View the NASA Portal
+ Center for Near-Earth Object Studies
JPL Home Earth Solar System Stars & Galaxies Technology
JPL Solar System Dynamics
BODIES ORBITS EPHEMERIDES TOOLS PHYSICAL DATA DISCOVERY FAQ SITE MAP
JPL Small-Body Database Browser
Search: [ help ]  
151997 Bauhinia (2004 JL1)
Classification: Main-belt Asteroid          SPK-ID: 2151997
Ephemeris | Orbit Diagram | Orbital Elements | Mission Design | Physical Parameters | Discovery Circumstances ]

[ show orbit diagram ]
Orbital Elements at Epoch 2459200.5 (2020-Dec-17.0) TDB
Reference: JPL 17 (heliocentric ecliptic J2000)
 Element Value Uncertainty (1-sigma)   Units 
e .1620206527443566 3.6268e-08  
a 2.309721483614053 1.1429e-08 au
q 1.935498901181241 8.5299e-08 au
i .7149695736719422 4.8381e-06 deg
node 235.5631076855487 0.00040112 deg
peri 41.71383025666291 0.00040151 deg
M 229.3923974367804 1.8047e-05 deg
tp 2459665.661545262478
(2022-Mar-27.16154526)
6.535e-05 TDB
period 1282.14708032356
3.51
9.5163e-06
2.605e-08
d
yr
n .2807790194469351 2.084e-09 deg/d
Q 2.683944066046866 1.328e-08 au
  Orbit Determination Parameters
   # obs. used (total)      298  
   data-arc span      8152 days (22.32 yr)  
   first obs. used      1998-11-23  
   last obs. used      2021-03-19  
   planetary ephem.      DE441  
   SB-pert. ephem.      SB441-N16  
   condition code      0  
   norm. resid. RMS      .58375  
   source      ORB  
   producer      Otto Matic  
   solution date      2021-May-04 09:41:12  

Additional Information
 Earth MOID = .917278 au 
 Jupiter MOID = 2.42992 au 
 T_jup = 3.568 
[ show covariance matrix ]

Ephemeris | Orbit Diagram | Orbital Elements | Mission Design | Physical Parameters | Discovery Circumstances ]

Physical Parameter Table
Parameter Symbol Value Units Sigma Reference Notes
absolute magnitude H 17.68   n/a MPCxxxxx  

151997 Bauhinia           Discovered 2004 May 11 by W. K. Y. Yeung at the Desert Eagle Observatory.
Bauhinia blakeana is the Hong Kong City Flower.
NOTE: some special characters may not display properly (any characters within {} are an attempt to place the proper accent above a character)
Reference: 20070601/MPCPages.arcLast Updated: 2007-06-06

Alternate Designations
 2004 JL1 = 2001 QJ143 
Ephemeris | Orbit Diagram | Orbital Elements | Mission Design | Physical Parameters | Discovery Circumstances ]
ABOUT SSD CREDITS/AWARDS PRIVACY/COPYRIGHT GLOSSARY LINKS
FirstGov 2021-Jun-15 20:24 UT
(server date/time)  
NASA Home Page
Site Manager:   Ryan S. Park
Webmaster  Alan B. Chamberlin